Regional Weather Roundup
Issued by NWS Wakefield, VA

Home | Current Version | Previous Version | Graphics & Text | Print | Product List | Glossary On
Versions: 1 2 3 4 5 6 7 8 9 10 11 12 13 14 15 16 17 18 19 20 21 22 23 24 25 26 27 28 29 30 31 32 33 34 35 36 37 38 39 40 41 42 43 44 45 46 47 48 49 50
000
ASUS41 KAKQ 300010
RWRAKQ

REGIONAL WEATHER ROUNDUP
NATIONAL WEATHER SERVICE WAKEFIELD VA
700 PM EST THU JAN 29 2015

Note: "fair" indicates few or no clouds below 12,000 feet with no
significant weather and/or obstructions to visibility. * = Denotes
station may not report precipitation (e.g., rain,snow,etc.),
thunder or fog.

VAZ042-051-052>054-056-300100-
NORTHERN VIRGINIA

CITY           SKY/WX    TMP DP  RH WIND       PRES   REMARKS
WASH NATIONAL  CLOUDY    36  25  64 SE6       30.07F
DULLES         CLOUDY    33  23  66 S7        30.03F
FORT BELVOIR   CLOUDY    32  29  88 VRB3      30.06F
QUANTICO       CLOUDY    37  24  59 S10       30.07F
FREDERICKSBRG* CLOUDY    38  21  49 S6        30.06S
STAFFORD*      CLOUDY    37  15  40 CALM      30.09F
WARRENTON      CLOUDY    37  27  69 SE3       30.02F
CULPEPER*      CLOUDY    37  27  65 CALM      30.03F
MANASSAS*      CLOUDY    34  28  80 S3        30.04F
LEESBURG*      CLOUDY    32  30  93 S6        30.03F
WINCHESTER     CLOUDY    36  23  60 S8        29.96F
FRONT ROYAL*   CLOUDY    32  30  93 SE3       29.95F
LURAY*         CLOUDY    37  28  70 SW6       29.97F
$$

VAZ048-049-060>072-079>083-300100-
CENTRAL AND SOUTH CENTRAL VIRGINIA

CITY           SKY/WX    TMP DP  RH WIND       PRES   REMARKS
RICHMOND       MOCLDY    40  18  41 S9        30.07F
CHESTERFIELD*  FAIR      39  12  33 S7        30.08F
PETERSBURG*    PTCLDY    41  15  34 S3        30.09S
HANOVER        PTCLDY    38  17  42 S8        30.09S
TAPPAHANNOCK*  CLOUDY    38  14  37 SE6       30.09F
QUINTON*       CLOUDY    40  17  38 S5        30.08F
CHARLOTTSVILLE CLOUDY    39  23  52 S12       30.02F
GORDONSVILLE*  CLOUDY    37  23  56 S5        30.02F
ORANGE*        CLOUDY    37  25  60 CALM      30.05S
LOUISA*        CLOUDY    41  19  42 S3        30.03S
BUMPASS*       CLOUDY    38  17  43 S5        30.05S
FARMVILLE*     CLEAR     39  19  45 S6        30.05R
CREWE*         FAIR      39  17  40 S6        30.06S
FORT PICKETT*  FAIR      37  19  48 S8        30.07S
CHASE CITY*    FAIR      39  24  53 S5        30.07S
CLARKSVILLE*   FAIR      37  23  56 S5        30.08S
SOUTH HILL*    CLEAR     37  20  51 S8        30.14F
LAWRENCEVILLE* FAIR      38  20  47 S5        30.09F
EMPORIA*       CLOUDY    37  23  56 CALM      30.12F
$$

VAZ088>098-300100-
SOUTHEAST VIRGINIA

CITY           SKY/WX    TMP DP  RH WIND       PRES   REMARKS
NORFOLK        CLOUDY    39  18  42 S10       30.12F
VIRGINIA BEACH CLOUDY    40  20  44 S8        30.12F
NORFOLK NAVAL  CLOUDY    44  18  35 S8        30.13F
WEST POINT*    CLOUDY    42  19  40 SE6       30.11F
SALUDA*        CLOUDY    37  23  56 S8        30.10F
NEWPORT NEWS   CLOUDY    43  20  39 S9        30.11F
LANGLEY AFB    CLOUDY    40  21  46 S12       30.11F
FORT EUSTIS    CLOUDY    40  25  54 S8        30.09F
WILLIAMSBURG*    N/A     43  23  45 S9        30.11F
HR EXEC AP*    CLOUDY    39  18  41 S8        30.15S
FRANKLIN*      CLOUDY    39  18  42 S7        30.12F
WAKEFIELD      CLOUDY    41  17  38 S5        30.10F
$$

VAZ020-022-025-037-045-300100-
WEST CENTRAL AND SOUTHWEST VIRGINIA

CITY           SKY/WX    TMP DP  RH WIND       PRES   REMARKS
STAUNTON*      CLOUDY    37  25  60 S5        29.99F
WAYNESBORO*    CLOUDY    37  24  59 S6        29.98S
HOT SPRINGS VA CLOUDY    33  27  79 S8        29.87F
LYNCHBURG      MOCLDY    37  25  61 SW5       30.05R
DANVILLE       CLEAR     42  23  46 S9        30.06F
SOUTH BOSTON*  FAIR      38  20  48 S6        30.08S
MARTINSVILLE   CLEAR     43  23  45 SW6       30.08R
ROANOKE        MOCLDY    41  26  55 S3        30.03R
BLACKSBURG     CLOUDY    37  26  62 CALM      30.02S
DUBLIN*        CLOUDY    40  29  64 CALM      30.01S
MARION*        CLOUDY    44  31  62 W12G17    30.01S
HILLSVILLE*    CLOUDY    37  26  64 S9        30.01R
RICHLANDS*     CLOUDY    44  30  59 SW10G17   29.98S
WISE*          CLOUDY    45  32  61 SW17      29.99R
ABINGDON*      CLOUDY    45  31  60 CALM      30.01S
$$

MDZ021>025-VAZ099-100-300100-
SOUTHERN MARYLAND AND THE DELMARVA PENINSULA

CITY           SKY/WX    TMP DP  RH WIND       PRES   REMARKS
PATUXENT RIVER CLOUDY    35  26  69 SE10      30.09F
BAY BRIDGE APT   N/A     32  23  69 SE12      30.09F WCI  23
LEONARDTOWN    CLOUDY    34  27  75 SE6       30.10F
DOVER          CLOUDY    34  20  57 S10       30.12R
GEORGETOWN     CLOUDY    34  20  56 S9        30.12F
EASTON         LGT SNOW  36  19  51 S9        30.13F
CAMBRIDGE      CLOUDY    36  27  69 S9        30.11R
SALISBURY      CLOUDY    36  22  56 S9        30.11F
OCEAN CITY     CLOUDY    36  26  67 SW7       30.12F
WALLOPS ISLAND MOCLDY    34  25  69 S12       30.13F
ACCOMACK*      CLOUDY    36  23  60 S7        30.12F
$$

NCZ012>017-030>032-300100-
NORTH CENTRAL AND EASTERN NORTH CAROLINA

CITY           SKY/WX    TMP DP  RH WIND       PRES   REMARKS
ROANOKE RAPIDS CLOUDY    41  23  48 CALM      30.11S
RALEIGH        MOCLDY    42  25  50 S9        30.10F
ELIZABETH CITY CLOUDY    38  27  64 SE6       30.14F
AHOSKIE*       CLOUDY    40  20  43 S6        30.13F
EDENTON*       CLOUDY    41  26  55 S12       30.14F
CURRITUCK*     CLOUDY    38  19  46 S3        30.15F
KILL DEVIL HLS MOCLDY    39  29  68 S5        30.16F
MANTEO         MOCLDY    39  28  65 S13       30.17F
CAPE HATTERAS  CLOUDY    39  26  59 S8        30.19F
TARBORO*       MOCLDY    44  23  43 S3        30.14F
GOLDSBORO      CLOUDY    45  32  61 CALM      30.12S
WASHINGTON     CLOUDY    43  24  46 S3        30.15F
GREENVILLE     CLOUDY    45  19  36 S8        30.14F
NEW BERN       CLOUDY    44  20  38 S7        30.18F
WILMINGTON     PTCLDY    45  31  58 S6        30.18F
$$

VAZ048-300100-
ELSEWHERE

CITY           SKY/WX    TMP DP  RH WIND       PRES   REMARKS
HARRISBURG PA  FRZ DRZL  26  24  92 SE9       30.03F FOG
BALTIMORE      CLOUDY    31  27  85 SE3       30.06F
ANNAPOLIS      CLOUDY    33  26  75 SE13      30.07F WCI  24
ANDREWS AFB    NOT AVBL
PHILADELPHIA   CLOUDY    34  18  52 S8        30.11S
HENDERSON NC   PTCLDY    36  21  54 CALM      30.09S
GREENSBORO     PTCLDY    41  25  53 CALM      30.07S
ROCKY MOUNT    PTCLDY    41  21  44 S5        30.12F
$$

VAZ100-300100-
MARINE

STATION/POSITION TIME  TEMP    WIND        PRES    WAVE   SWELL
                       AIR SEA DIR/SP/G            HT/PER HT/PER
                 (UTC) (F)     (DEG/KT/KT) (MB)    (FT/S) (FT/S)
BRANDYWINE LGT   0000   35 36  190/ 19/ 21 1019.8S
CAPE MAY NJ      0000   35 37              1019.3F
LEWES DE         0000   34 36  180/  6/  9 1019.4F
15NM E FENWICK I 0000   38 40              1020.0F   3/11
OCEAN-CITY-INLET 0000   36 38  200/ 13/ 16 1019.6F
WACHAPREAGUE VA  0000   37 35  190/  9/ 12 1020.1S
THOMAS POINT MD  0000   34 35  160/ 18/ 19 1019.1F
GOOSES REEF MD   0000   36     VRB 19/ 21  1017.6F
COVE POINT MD    0000   35     180/ 19/ 22 1018.6F
SOLOMONS ISLAND  0000      37                N/A
BISHOPS HEAD MD  0000   35 33  180/  9/ 12 1019.6R
PINEY POINT MD   0000          150/ 13/ 14   N/A
POTOMAC MD       0000   37     180/ 12/ 16 1018.6F
CAMBRIDGE MD     0000   34 35  140/  5/  8 1019.4F
LEWISETTA VA     0000   36 36  160/  8/ 10 1018.6F
RAPPAHANNOCK LGT 0000          150/ 13/ 14 1020.3F
STINGRAY PT      0000   38     160/ 14/ 16 1019.8F
YORK RVR RNG VA  0000   40     180/ 10/ 12 1019.2F
YORKTOWN VA      0000   41 39  190/  5/  8 1019.4F
JAMESTOWN VA     0000   40     170/  8/  8   N/A
DOMINION TERM VA 0000   40     180/ 10/ 12 1020.1R
KIPTOPEKE VA     0000      44  180/ 14/ 16   N/A
CHES BAY BRIDGE  0000   39 40  160/ 13/ 16 1019.5F
CAPE HENRY VA    0000   38     170/  9/ 13 1018.7F
CHESAPEAKE LGHT  2300   39     180/ 16/ 18 1021.2F
WILLOUBY STN VA  0000   40     190/ 12/ 15 1020.4R
S CRANEY ISL VA  0000          180/  9/ 13 1019.9F
CAPE HENRY BUOY  0000      42                N/A     3/11   2/11
1ST LANDING BUOY 0000   39     180/ 14/ 17 1019.6F
CAPE CHARLES BUO 0000      40                N/A     3/12   2/12
OFFSHORE WE BUOY 0000      43                N/A     3/11   3/11
64NM E OF VA BCH 0000   41 49  210/ 12/ 16 1020.9F   3/11   3/11
DUCK PIER NC     0000   38 43  160/  8/ 10 1020.6R
44100 DUCK FRF   0000      45                N/A     3/12   2/12
44056 DUCK FRF   0000      42                N/A     3/ 8   2/11
OREGON INLET NC  0000   40 42  190/ 11/ 13 1022.0F
HATTERAS NC      0000   40 44  180/  5/  7 1022.7F


USA.gov is the U.S. government's official web portal to all federal, state and local government web resources and services.